Location: Newark
(27.9675°N, 86.8869°E)
Time: 22:35:06
(UTC+00:00)

Vanguard 1 - All Passes

Search period start: 14 October 2019 00:00
Search period end: 24 October 2019 00:00
Orbit: 653 x 3830 km, 34.3° (Epoch: 14 October)

Date Brightness Start Highest point End Pass type
(mag) Time Alt. Az. Time Alt. Az. Time Alt. Az.
14 Oct - 11:52:02 10° SSW 11:58:39 38° SE 12:09:58 10° ENE visible
14 Oct - 14:10:26 10° WSW 14:20:10 84° NNW 14:38:50 10° ENE visible
14 Oct - 16:31:46 10° W 16:46:05 71° N 17:09:16 10° E visible
14 Oct - 18:54:40 10° WNW 19:14:13 89° SSW 19:37:53 10° ESE visible
14 Oct - 21:19:55 10° WNW 21:41:08 50° SW 22:00:36 10° SSE visible
14 Oct - 23:55:01 10° W 00:05:02 15° SW 00:13:56 10° SSW visible
15 Oct - 12:12:17 10° SW 12:19:16 53° SE 12:32:05 10° ENE visible
15 Oct - 14:31:33 10° W 14:41:43 76° NNW 15:01:00 10° ENE visible
15 Oct - 16:53:08 10° WNW 17:08:07 73° N 17:31:38 10° E visible
15 Oct - 19:16:05 10° WNW 19:36:00 80° SSW 19:59:18 10° SE visible
15 Oct - 21:42:11 10° WNW 22:02:16 40° SW 22:20:36 10° SSE visible
16 Oct - 10:18:04 10° SSE 10:20:55 13° SE 10:24:22 10° ESE daylight
16 Oct - 12:32:51 10° SW 12:40:07 70° SSE 12:54:02 10° ENE visible
16 Oct - 14:52:46 10° W 15:03:26 71° N 15:23:17 10° ENE visible
16 Oct - 17:14:27 10° WNW 17:30:05 78° NNE 17:53:54 10° ESE visible
16 Oct - 19:37:34 10° WNW 19:57:37 70° SSW 20:20:25 10° SE visible
16 Oct - 22:05:00 10° W 22:23:19 31° SW 22:40:04 10° S visible
17 Oct - 10:36:39 10° S 10:41:16 22° SE 10:47:54 10° E daylight
17 Oct - 12:53:38 10° WSW 13:01:12 86° SSE 13:15:56 10° ENE visible
17 Oct - 15:14:01 10° W 15:25:14 68° N 15:45:41 10° E visible
17 Oct - 17:35:45 10° WNW 17:51:58 84° NNE 18:15:59 10° ESE visible
17 Oct - 19:59:10 10° WNW 20:19:07 59° SW 20:41:13 10° SE visible
17 Oct - 22:28:46 10° W 22:44:22 23° SW 22:58:47 10° S visible
18 Oct - 10:56:23 10° SSW 11:01:43 34° SE 11:10:18 10° ENE daylight
18 Oct - 13:14:35 10° WSW 13:22:30 81° NNW 13:37:54 10° ENE visible
18 Oct - 15:35:16 10° WNW 15:47:03 69° N 16:08:09 10° E visible
18 Oct - 17:57:02 10° WNW 18:13:46 88° SSW 18:37:48 10° ESE visible
18 Oct - 20:20:58 10° WNW 20:40:30 49° SW 21:01:38 10° SSE visible
18 Oct - 22:54:24 10° WSW 23:05:30 15° SW 23:15:57 10° SSW visible
19 Oct - 11:16:37 10° SW 11:22:21 50° SE 11:32:16 10° ENE daylight
19 Oct - 13:35:41 10° W 13:43:57 72° N 13:59:57 10° ENE visible
19 Oct - 15:56:30 10° WNW 16:08:51 72° N 16:30:36 10° E visible
19 Oct - 18:18:19 10° WNW 18:35:28 78° SSW 18:59:19 10° SE visible
19 Oct - 20:43:07 10° WNW 21:01:49 39° SW 21:21:37 10° SSE visible
20 Oct - 11:37:11 10° SW 11:43:10 69° SSE 11:54:04 10° ENE daylight
20 Oct - 13:56:49 10° W 14:05:30 67° N 14:22:09 10° ENE visible
20 Oct - 16:17:42 10° WNW 16:30:38 77° NNE 16:52:57 10° ESE visible
20 Oct - 18:39:41 10° WNW 18:57:03 68° SSW 19:20:30 10° SE visible
20 Oct - 21:05:49 10° W 21:23:05 31° SW 21:41:05 10° S visible
21 Oct - 09:41:05 10° S 09:44:39 19° SE 09:49:15 10° E daylight
21 Oct - 11:57:59 10° WSW 12:04:13 89° SSE 12:15:49 10° ENE visible
21 Oct - 14:18:01 10° W 14:27:07 65° N 14:44:30 10° E visible
21 Oct - 16:38:52 10° WNW 16:52:20 84° NNE 17:15:06 10° ESE visible
21 Oct - 19:01:10 10° WNW 19:18:36 57° SW 19:41:20 10° SE visible
21 Oct - 21:29:26 10° W 21:44:24 23° SW 21:59:45 10° S visible
22 Oct - 10:00:45 10° SSW 10:05:10 30° SE 10:11:34 10° E daylight
22 Oct - 12:18:57 10° WSW 12:25:25 76° NNW 12:37:36 10° ENE visible
22 Oct - 14:39:10 10° WNW 14:48:46 66° N 15:06:55 10° E visible
22 Oct - 17:00:01 10° WNW 17:13:58 87° SSW 17:37:00 10° ESE visible
22 Oct - 19:22:52 10° WNW 19:40:05 47° SW 20:01:47 10° SSE visible
22 Oct - 21:54:56 10° WSW 22:05:49 15° SW 22:16:50 10° SSW visible
23 Oct - 10:21:00 10° SW 10:25:49 47° SE 10:33:23 10° ENE daylight
23 Oct - 12:40:01 10° W 12:46:46 67° N 12:59:30 10° ENE visible
23 Oct - 15:00:18 10° WNW 15:10:23 70° NNE 15:29:21 10° E visible
23 Oct - 17:21:13 10° WNW 17:35:33 76° SSW 17:58:35 10° SE visible
23 Oct - 19:44:55 10° W 20:01:32 38° SW 20:21:46 10° SSE visible
